Regional Weather Roundup
Issued by NWS

Home | Current Version | Previous Version | Graphics & Text | Print | Product List | Glossary On
Versions: 1 2 3 4 5 6 7 8 9 10 11 12 13 14 15 16 17 18 19 20 21 22 23 24 25 26 27
000
ASUS45 KCYS 221210
RWRWY

WYOMING REGIONAL WEATHER ROUNDUP
NATIONAL WEATHER SERVICE CHEYENNE WY
600 AM MDT TUE APR 22 2014

NOTE:  "FAIR" INDICATES FEW OR NO CLOUDS BELOW 12,000 FEET
WITH NO SIGNIFICANT WEATHER AND/OR OBSTRUCTIONS TO VISIBILITY.

WYZ001-221300-
YELLOWSTONE NATIONAL PARK

CITY           SKY/WX    TMP DP  RH WIND       PRES   REMARKS
LK YELLOWSTONE   N/A     32  32 100 CALM      30.03F
6HR MIN TEMP:  30; 6HR MAX TEMP:  40; 6HR PCP:  0.21;

W YELLOWSTONE  NOT AVBL

$$
WYZ002>013-054>058-071-098>099-221300-
NORTHERN WYOMING

CITY           SKY/WX    TMP DP  RH WIND       PRES   REMARKS
JACKSON        CLOUDY    41  37  87 N16       29.96S
CODY           CLOUDY    54  34  47 W14G21    29.87F
GREYBULL       CLOUDY    47  33  58 CALM      29.84F
6HR MIN TEMP:  47; 6HR MAX TEMP:  54;

WORLAND        MOCLDY    40  32  73 S7        29.83F
6HR MIN TEMP:  37; 6HR MAX TEMP:  50;

SHERIDAN         N/A     37  27  65 CALM        N/A
6HR MIN TEMP:  42; 6HR MAX TEMP:  49;

BUFFALO        PTCLDY    50  25  37 W10       29.88F
6HR MIN TEMP:  45; 6HR MAX TEMP:  56;

GILLETTE       CLOUDY    45  32  60 S6        29.89F
6HR MIN TEMP:  42; 6HR MAX TEMP:  52;

HULETT         FAIR      50  30  46 MISG      29.90
NEWCASTLE      FAIR      50  27  40 MISG      29.93

$$
WYZ014>020-022>026-101>103-221300-
CENTRAL WYOMING

CITY           SKY/WX    TMP DP  RH WIND       PRES   REMARKS
BIG PINEY      MOCLDY    38  27  64 NW3       29.97F
6HR MIN TEMP:  38; 6HR MAX TEMP:  45;

PINEDALE       CLOUDY    41  32  70 CALM      29.97F
DUBOIS         FAIR      41  27  56 NW12      29.92F
LANDER         PTCLDY    42  24  49 CALM      29.88F
6HR MIN TEMP:  34; 6HR MAX TEMP:  50;

RIVERTON       PTCLDY    40  24  53 NE3       29.89F
6HR MIN TEMP:  38; 6HR MAX TEMP:  47;

CASPER         MOCLDY    38  31  76 E5        29.91F WCI  34
6HR MIN TEMP:  33; 6HR MAX TEMP:  43;

DOUGLAS        MOCLDY    40  34  79 SE8       29.93F WCI  34
6HR MIN TEMP:  39; 6HR MAX TEMP:  47;


$$
WYZ021-027>030-104>119-221300-
SOUTHERN WYOMING

CITY           SKY/WX    TMP DP  RH WIND       PRES   REMARKS
EVANSTON         N/A     52  27  38 CALM      29.96F
6HR MIN TEMP:  48; 6HR MAX TEMP:  52;

KEMMERER       CLOUDY    43  32  65 CALM      29.99R
FORT BRIDGER   FAIR      51  30  43 S10       29.98F
ROCK SPRINGS   CLOUDY    51  28  41 SW6       29.96F
6HR MIN TEMP:  50; 6HR MAX TEMP:  54;

DIXON          FAIR      45  31  57 CALM      30.03F
RAWLINS        MOCLDY    51  26  37 W6        30.00F
6HR MIN TEMP:  35; 6HR MAX TEMP:  51;

SARATOGA       FAIR      45  27  49 S14       30.02F
LARAMIE        CLOUDY    35  26  69 S9        30.05F WCI  28
6HR MIN TEMP:  34; 6HR MAX TEMP:  42;

CHEYENNE       CLOUDY    42  33  70 W6        30.03F
6HR MIN TEMP:  39; 6HR MAX TEMP:  48;

TORRINGTON     PTCLDY    43  31  62 E12       29.95F
6HR MIN TEMP:  42; 6HR MAX TEMP:  50;

PINE BLUFFS    FAIR      39  32  75 CALM      30.02F

$$



USA.gov is the U.S. government's official web portal to all federal, state and local government web resources and services.